Time,TemperatureF,DewpointF,PressureIn,WindDirection,WindDirectionDegrees,WindSpeedMPH,WindSpeedGustMPH,Humidity,HourlyPrecipIn,Conditions,Clouds,dailyrainin,SolarRadiationWatts/m^2,SoftwareType,DateUTC
2013-02-10 00:01:00,38.5,33.0,30.11,ESE,119,0.0,1.0,82,0.00,,,0.01,0,weatherlink.com 1.10,2013-02-10 08:01:00,
2013-02-10 00:16:00,38.6,34.0,30.11,ESE,119,0.0,0.0,83,0.00,,,0.01,0,weatherlink.com 1.10,2013-02-10 08:16:00,
2013-02-10 00:31:00,38.7,35.0,30.11,ESE,123,2.0,5.0,85,0.00,,,0.01,0,weatherlink.com 1.10,2013-02-10 08:31:00,
2013-02-10 00:46:00,38.3,34.0,30.10,ESE,118,0.0,2.0,85,0.00,,,0.01,0,weatherlink.com 1.10,2013-02-10 08:46:00,
2013-02-10 01:01:00,38.8,35.0,30.10,SE,135,0.0,6.0,87,0.00,,,0.00,0,weatherlink.com 1.10,2013-02-10 09:01:00,
2013-02-10 01:16:00,37.8,34.0,30.10,ESE,115,0.0,1.0,87,0.00,,,0.00,0,weatherlink.com 1.10,2013-02-10 09:16:00,
2013-02-10 01:32:00,36.7,33.0,30.10,ESE,115,0.0,0.0,87,0.00,,,0.00,0,weatherlink.com 1.10,2013-02-10 09:32:00,
2013-02-10 01:47:00,36.4,33.0,30.10,ESE,115,0.0,1.0,87,0.00,,,0.00,0,weatherlink.com 1.10,2013-02-10 09:47:00,
2013-02-10 02:02:00,36.0,33.0,30.10,ESE,115,1.0,1.0,88,0.00,,,0.00,0,weatherlink.com 1.10,2013-02-10 10:02:00,
2013-02-10 02:17:00,36.7,33.0,30.10,SE,131,0.0,1.0,87,0.00,,,0.00,0,weatherlink.com 1.10,2013-02-10 10:17:00,
2013-02-10 02:32:00,36.5,33.0,30.10,ESE,118,0.0,1.0,88,0.00,,,0.00,0,weatherlink.com 1.10,2013-02-10 10:32:00,
2013-02-10 02:47:00,35.5,33.0,30.10,East,79,0.0,1.0,89,0.00,,,0.00,0,weatherlink.com 1.10,2013-02-10 10:47:00,
2013-02-10 03:02:00,35.8,33.0,30.10,ENE,74,0.0,0.0,88,0.00,,,0.00,0,weatherlink.com 1.10,2013-02-10 11:02:00,
2013-02-10 03:17:00,36.0,32.0,30.09,ENE,74,0.0,0.0,86,0.00,,,0.00,0,weatherlink.com 1.10,2013-02-10 11:17:00,
2013-02-10 03:32:00,36.0,32.0,30.10,ENE,74,0.0,0.0,86,0.00,,,0.00,0,weatherlink.com 1.10,2013-02-10 11:32:00,
2013-02-10 03:48:00,36.2,32.0,30.10,ENE,75,0.0,0.0,86,0.00,,,0.00,0,weatherlink.com 1.10,2013-02-10 11:48:00,
2013-02-10 04:03:00,36.9,33.0,30.10,SE,130,0.0,4.0,86,0.00,,,0.00,0,weatherlink.com 1.10,2013-02-10 12:03:00,
2013-02-10 04:18:00,36.1,32.0,30.09,ESE,115,0.0,1.0,84,0.00,,,0.00,0,weatherlink.com 1.10,2013-02-10 12:18:00,
2013-02-10 04:34:00,36.5,33.0,30.09,ESE,123,0.0,1.0,86,0.00,,,0.00,0,weatherlink.com 1.10,2013-02-10 12:34:00,
2013-02-10 04:48:00,35.8,32.0,30.09,ESE,114,0.0,1.0,86,0.00,,,0.00,0,weatherlink.com 1.10,2013-02-10 12:48:00,
2013-02-10 05:03:00,36.1,32.0,30.09,ESE,117,0.0,1.0,84,0.00,,,0.00,0,weatherlink.com 1.10,2013-02-10 13:03:00,
2013-02-10 05:18:00,35.5,31.0,30.10,ESE,117,0.0,0.0,85,0.00,,,0.00,0,weatherlink.com 1.10,2013-02-10 13:18:00,
2013-02-10 05:33:00,35.1,31.0,30.10,ESE,114,0.0,1.0,85,0.00,,,0.00,0,weatherlink.com 1.10,2013-02-10 13:33:00,
2013-02-10 05:48:00,36.4,33.0,30.10,SE,133,0.0,1.0,88,0.00,,,0.00,0,weatherlink.com 1.10,2013-02-10 13:48:00,
2013-02-10 06:03:00,35.7,33.0,30.10,East,96,0.0,1.0,88,0.00,,,0.00,0,weatherlink.com 1.10,2013-02-10 14:03:00,
2013-02-10 06:19:00,35.3,32.0,30.11,East,92,0.0,1.0,88,0.00,,,0.00,0,weatherlink.com 1.10,2013-02-10 14:19:00,
2013-02-10 06:34:00,35.4,32.0,30.11,East,92,0.0,0.0,87,0.00,,,0.00,0,weatherlink.com 1.10,2013-02-10 14:34:00,
2013-02-10 06:49:00,36.0,32.0,30.11,SE,130,5.0,6.0,86,0.00,,,0.00,0,weatherlink.com 1.10,2013-02-10 14:49:00,
2013-02-10 07:04:00,36.2,33.0,30.12,SE,126,2.0,6.0,89,0.00,,,0.00,5,weatherlink.com 1.10,2013-02-10 15:04:00,
2013-02-10 07:19:00,35.2,32.0,30.12,ESE,111,0.0,1.0,89,0.00,,,0.00,12,weatherlink.com 1.10,2013-02-10 15:19:00,
2013-02-10 07:34:00,35.2,32.0,30.12,ESE,111,0.0,1.0,88,0.00,,,0.00,21,weatherlink.com 1.10,2013-02-10 15:34:00,
2013-02-10 07:49:00,35.7,33.0,30.13,ESE,111,0.0,0.0,88,0.00,,,0.00,32,weatherlink.com 1.10,2013-02-10 15:49:00,
2013-02-10 08:05:00,36.6,33.0,30.13,ESE,117,0.0,1.0,87,0.00,,,0.00,109,weatherlink.com 1.10,2013-02-10 16:05:00,
2013-02-10 08:20:00,37.1,33.0,30.13,SE,128,2.0,3.0,86,0.00,,,0.00,171,weatherlink.com 1.10,2013-02-10 16:20:00,
2013-02-10 08:36:00,38.4,34.0,30.13,SE,128,0.0,0.0,85,0.00,,,0.00,223,weatherlink.com 1.10,2013-02-10 16:36:00,
2013-02-10 08:51:00,40.4,36.0,30.13,SE,129,0.0,1.0,83,0.00,,,0.00,295,weatherlink.com 1.10,2013-02-10 16:51:00,
2013-02-10 09:05:00,41.7,37.0,30.13,SE,134,0.0,1.0,82,0.00,,,0.00,316,weatherlink.com 1.10,2013-02-10 17:05:00,
2013-02-10 09:21:00,43.6,37.0,30.12,East,100,0.0,0.0,77,0.00,,,0.00,341,weatherlink.com 1.10,2013-02-10 17:21:00,
2013-02-10 09:35:00,44.0,38.0,30.12,SE,132,0.0,0.0,80,0.00,,,0.00,425,weatherlink.com 1.10,2013-02-10 17:35:00,
2013-02-10 09:51:00,45.4,40.0,30.11,SSE,160,1.0,4.0,81,0.00,,,0.00,461,weatherlink.com 1.10,2013-02-10 17:51:00,
2013-02-10 10:06:00,46.9,41.0,30.11,SSE,167,2.0,3.0,81,0.00,,,0.00,497,weatherlink.com 1.10,2013-02-10 18:06:00,
2013-02-10 10:21:00,48.1,42.0,30.11,SSW,205,5.0,5.0,80,0.00,,,0.00,515,weatherlink.com 1.10,2013-02-10 18:21:00,
2013-02-10 10:36:00,50.6,43.0,30.11,West,273,2.0,4.0,74,0.00,,,0.00,548,weatherlink.com 1.10,2013-02-10 18:36:00,
2013-02-10 10:51:00,50.4,41.0,30.10,SW,226,0.0,5.0,70,0.00,,,0.00,292,weatherlink.com 1.10,2013-02-10 18:51:00,
2013-02-10 11:07:00,52.9,40.0,30.10,WSW,238,2.0,5.0,62,0.00,,,0.00,605,weatherlink.com 1.10,2013-02-10 19:07:00,
2013-02-10 11:21:00,55.0,41.0,30.09,WSW,238,0.0,2.0,59,0.00,,,0.00,622,weatherlink.com 1.10,2013-02-10 19:21:00,
2013-02-10 11:37:00,58.4,43.0,30.09,SSW,213,1.0,2.0,56,0.00,,,0.00,636,weatherlink.com 1.10,2013-02-10 19:37:00,
2013-02-10 11:52:00,56.2,43.0,30.08,West,279,4.0,8.0,61,0.00,,,0.00,649,weatherlink.com 1.10,2013-02-10 19:52:00,
2013-02-10 12:07:00,57.2,45.0,30.07,West,266,6.0,8.0,64,0.00,,,0.00,652,weatherlink.com 1.10,2013-02-10 20:07:00,
2013-02-10 12:22:00,57.7,48.0,30.06,WNW,292,5.0,9.0,70,0.00,,,0.00,650,weatherlink.com 1.10,2013-02-10 20:22:00,
2013-02-10 12:37:00,56.1,49.0,30.06,SSW,208,8.0,10.0,77,0.00,,,0.00,596,weatherlink.com 1.10,2013-02-10 20:37:00,
2013-02-10 12:52:00,55.0,49.0,30.05,SSW,208,4.0,11.0,81,0.00,,,0.00,640,weatherlink.com 1.10,2013-02-10 20:52:00,
2013-02-10 13:07:00,55.1,49.0,30.05,SW,233,7.0,11.0,81,0.00,,,0.00,631,weatherlink.com 1.10,2013-02-10 21:07:00,
2013-02-10 13:22:00,54.9,49.0,30.04,SW,216,6.0,11.0,80,0.00,,,0.00,621,weatherlink.com 1.10,2013-02-10 21:22:00,
2013-02-10 13:39:00,56.5,50.0,30.04,WSW,254,4.0,8.0,80,0.00,,,0.00,599,weatherlink.com 1.10,2013-02-10 21:39:00,
2013-02-10 13:53:00,56.1,49.0,30.04,WSW,255,5.0,10.0,78,0.00,,,0.00,580,weatherlink.com 1.10,2013-02-10 21:53:00,
2013-02-10 14:09:00,55.5,50.0,30.04,WNW,286,8.0,11.0,81,0.00,,,0.00,540,weatherlink.com 1.10,2013-02-10 22:09:00,
2013-02-10 14:23:00,54.8,49.0,30.04,West,269,7.0,10.0,82,0.00,,,0.00,459,weatherlink.com 1.10,2013-02-10 22:23:00,
2013-02-10 14:38:00,55.8,51.0,30.03,WNW,282,3.0,8.0,83,0.00,,,0.00,499,weatherlink.com 1.10,2013-02-10 22:38:00,
2013-02-10 14:53:00,55.9,50.0,30.03,West,280,4.0,7.0,79,0.00,,,0.00,464,weatherlink.com 1.10,2013-02-10 22:53:00,
2013-02-10 15:08:00,56.0,50.0,30.04,West,273,5.0,8.0,79,0.00,,,0.00,427,weatherlink.com 1.10,2013-02-10 23:08:00,
2013-02-10 15:23:00,55.3,50.0,30.04,West,262,6.0,11.0,81,0.00,,,0.00,387,weatherlink.com 1.10,2013-02-10 23:23:00,
2013-02-10 15:38:00,55.0,51.0,30.04,NW,304,8.0,11.0,85,0.00,,,0.00,345,weatherlink.com 1.10,2013-02-10 23:38:00,
2013-02-10 15:54:00,54.4,50.0,30.04,WNW,297,4.0,10.0,86,0.00,,,0.00,299,weatherlink.com 1.10,2013-02-10 23:54:00,
2013-02-10 16:09:00,54.2,50.0,30.04,WNW,294,6.0,9.0,86,0.00,,,0.00,244,weatherlink.com 1.10,2013-02-11 00:09:00,
2013-02-10 16:24:00,53.9,50.0,30.04,WNW,286,4.0,8.0,85,0.00,,,0.00,186,weatherlink.com 1.10,2013-02-11 00:24:00,
2013-02-10 16:39:00,53.2,50.0,30.04,WNW,294,7.0,8.0,87,0.00,,,0.00,132,weatherlink.com 1.10,2013-02-11 00:39:00,
2013-02-10 16:54:00,53.0,49.0,30.03,NW,304,4.0,6.0,87,0.00,,,0.00,84,weatherlink.com 1.10,2013-02-11 00:54:00,
2013-02-10 17:09:00,53.2,49.0,30.04,WNW,300,0.0,4.0,86,0.00,,,0.00,44,weatherlink.com 1.10,2013-02-11 01:09:00,
2013-02-10 17:25:00,50.9,47.0,30.04,WNW,300,0.0,1.0,87,0.00,,,0.00,21,weatherlink.com 1.10,2013-02-11 01:25:00,
2013-02-10 17:39:00,49.9,47.0,30.05,WNW,300,0.0,0.0,88,0.00,,,0.00,11,weatherlink.com 1.10,2013-02-11 01:39:00,
2013-02-10 17:54:00,48.1,46.0,30.05,WNW,300,0.0,2.0,91,0.00,,,0.00,0,weatherlink.com 1.10,2013-02-11 01:54:00,
2013-02-10 18:09:00,47.6,45.0,30.05,NW,304,0.0,0.0,92,0.00,,,0.00,0,weatherlink.com 1.10,2013-02-11 02:09:00,
2013-02-10 18:25:00,46.9,45.0,30.06,NW,304,0.0,0.0,93,0.00,,,0.00,0,weatherlink.com 1.10,2013-02-11 02:25:00,
2013-02-10 18:40:00,46.4,45.0,30.06,NW,306,0.0,0.0,94,0.00,,,0.00,0,weatherlink.com 1.10,2013-02-11 02:40:00,
2013-02-10 18:55:00,45.9,44.0,30.07,NW,306,0.0,1.0,94,0.00,,,0.00,0,weatherlink.com 1.10,2013-02-11 02:55:00,
2013-02-10 19:10:00,46.0,45.0,30.06,NW,306,0.0,0.0,95,0.00,,,0.00,0,weatherlink.com 1.10,2013-02-11 03:10:00,
2013-02-10 19:25:00,45.7,44.0,30.06,NW,307,0.0,1.0,95,0.00,,,0.00,0,weatherlink.com 1.10,2013-02-11 03:25:00,
2013-02-10 19:40:00,45.3,44.0,30.06,NW,307,0.0,0.0,96,0.00,,,0.00,0,weatherlink.com 1.10,2013-02-11 03:40:00,
2013-02-10 19:55:00,45.6,45.0,30.06,NW,307,0.0,1.0,96,0.00,,,0.00,0,weatherlink.com 1.10,2013-02-11 03:55:00,
2013-02-10 20:10:00,44.7,44.0,30.07,SE,138,0.0,5.0,96,0.00,,,0.00,0,weatherlink.com 1.10,2013-02-11 04:10:00,
2013-02-10 20:25:00,43.9,43.0,30.07,SSE,148,0.0,1.0,95,0.00,,,0.00,0,weatherlink.com 1.10,2013-02-11 04:25:00,
2013-02-10 20:40:00,42.6,41.0,30.07,ESE,106,1.0,2.0,95,0.00,,,0.00,0,weatherlink.com 1.10,2013-02-11 04:40:00,
2013-02-10 20:56:00,42.4,41.0,30.08,East,98,0.0,1.0,95,0.00,,,0.00,0,weatherlink.com 1.10,2013-02-11 04:56:00,
2013-02-10 21:11:00,42.2,41.0,30.09,East,92,4.0,5.0,95,0.00,,,0.00,0,weatherlink.com 1.10,2013-02-11 05:11:00,
2013-02-10 21:26:00,42.3,41.0,30.09,East,82,1.0,4.0,95,0.00,,,0.00,0,weatherlink.com 1.10,2013-02-11 05:26:00,
2013-02-10 21:41:00,43.8,43.0,30.09,East,82,0.0,0.0,96,0.00,,,0.00,0,weatherlink.com 1.10,2013-02-11 05:41:00,
2013-02-10 21:56:00,43.8,43.0,30.09,East,82,0.0,0.0,95,0.00,,,0.00,0,weatherlink.com 1.10,2013-02-11 05:56:00,
2013-02-10 22:11:00,44.6,44.0,30.09,East,82,0.0,0.0,96,0.00,,,0.00,0,weatherlink.com 1.10,2013-02-11 06:11:00,
2013-02-10 22:26:00,46.0,45.0,30.09,East,82,0.0,0.0,96,0.00,,,0.00,0,weatherlink.com 1.10,2013-02-11 06:26:00,
2013-02-10 22:41:00,45.6,45.0,30.09,East,82,0.0,1.0,96,0.00,,,0.00,0,weatherlink.com 1.10,2013-02-11 06:41:00,
2013-02-10 22:56:00,45.1,44.0,30.09,East,83,0.0,1.0,97,0.00,,,0.00,0,weatherlink.com 1.10,2013-02-11 06:56:00,
2013-02-10 23:11:00,44.3,44.0,30.09,East,83,0.0,1.0,97,0.00,,,0.00,0,weatherlink.com 1.10,2013-02-11 07:11:00,
2013-02-10 23:27:00,42.8,42.0,30.10,East,84,0.0,0.0,97,0.00,,,0.00,0,weatherlink.com 1.10,2013-02-11 07:27:00,
2013-02-10 23:42:00,42.1,41.0,30.10,East,91,0.0,2.0,97,0.00,,,0.00,0,weatherlink.com 1.10,2013-02-11 07:42:00,
2013-02-10 23:57:00,41.5,41.0,30.10,SE,128,4.0,6.0,97,0.00,,,0.00,0,weatherlink.com 1.10,2013-02-11 07:57:00,